Regional Weather Roundup
Issued by NWS

Home | Current Version | Previous Version | Graphics & Text | Print | Product List | Glossary On
Versions: 1 2 3 4 5 6 7 8 9 10 11 12 13 14 15 16 17 18 19 20 21 22 23 24 25 26 27 28 29 30 31 32 33 34 35 36 37 38 39 40 41 42 43 44 45 46 47 48 49 50
673
ASUS43 KFSD 231910
RWRSD

WEATHER ROUNDUP FOR SOUTH DAKOTA
NATIONAL WEATHER SERVICE SIOUX FALLS SD
200 PM CDT FRI JUN 23 2017

NOTE: "FAIR" INDICATES FEW OR NO CLOUDS BELOW 12,000 FEET WITH NO
SIGNIFICANT WEATHER AND/OR OBSTRUCTIONS TO VISIBILITY.


SDZ001>005-009-010-012>017-232000-
NORTHWEST AND NORTH CENTRAL SOUTH DAKOTA

CITY           SKY/WX    TMP DP  RH WIND       PRES   REMARKS
BUFFALO          N/A     65  30  27 NW23G39   30.11S
FAITH            N/A     66  33  29 NW24G35   30.13R
MOBRIDGE       SUNNY     69  35  28 NW24G35   30.03F
$$

SDZ012>016-024>037-041>051-057-063-072>074-232000-
SOUTHWEST AND SOUTH CENTRAL SOUTH DAKOTA

CITY           SKY/WX    TMP DP  RH WIND       PRES   REMARKS
RAPID CTY ARPT SUNNY     67  34  29 N23G37    30.16F
PIERRE         SUNNY     68  37  32 NW24G32   30.08F
CUSTER         SUNNY     60  24  25 W13G18    30.22S
ELLSWORTH AFB  SUNNY     66  34  30 N24G33    30.17F
PHILIP         MOSUNNY   69  37  30 NW28G36   30.12F
PINE RIDGE     MOSUNNY   68  42  38 NW7       30.17F
SPEARFISH      FAIR      61  37  41 NW16G26   30.22S
WINNER         FAIR      72  39  30 NW20G35   30.09
$$

SDZ004>011-016>023-039-040-232000-
NORTHEAST SOUTH DAKOTA

CITY           SKY/WX    TMP DP  RH WIND       PRES   REMARKS
ABERDEEN       PTSUNNY   65  42  43 NW18G28   30.00F
WATERTOWN      CLOUDY    59  48  67 NW18G26   29.98S
BROOKINGS      CLOUDY    61  49  64 NW21      29.98F
SISSETON         N/A     67  48  50 NW24G32   29.93F
$$

SDZ017-020-022-023-036>040-048>070-232000-
SOUTHEAST SOUTH DAKOTA

CITY           SKY/WX    TMP DP  RH WIND       PRES   REMARKS
SIOUX FALLS    CLOUDY    66  52  60 NW24G32   29.98F
HURON          PTSUNNY   67  46  47 N18G28    30.01F
CHAMBERLAIN    SUNNY     69  39  33 NW24G33   30.07S
MITCHELL       CLOUDY    68  45  43 NW21G36   30.03S
YANKTON        CLOUDY    68  49  50 NW21G26   30.02F
$$

ABBREVIATIONS USED IN REMARKS
   TC - TEMPERATURE IN CELSIUS
  WCI - WIND CHILL INDEX
   HX - HEAT INDEX
  VSB - VISIBILITY





USA.gov is the U.S. government's official web portal to all federal, state and local government web resources and services.